Greenland, New Hampshire, United States (03840)
Lat: 43.04N, Lon: 70.83W
Wx Zone: NHZ014
Local Info
Past Weather Observations for Tuesday, September 1, 2015

NOTE: This archive is for the closest National Weather Service station to Greenland. Information may differ from the station used for current weather conditions.

Click here for Long-term Archive

Time Weather Temperature Dewpoint Humidity Pressure Winds Precip Visibility
23:58
Clear
61°F / 16°C 59°F / 15°C 94% 30.04 in
(1017 mb)
Calm - 10SM
22:58
Clear
63°F / 17°C 59°F / 15°C 88% 30.04 in
(1017 mb)
Calm - 10SM
21:58
Clear
63°F / 17°C 59°F / 15°C 88% 30.04 in
(1017 mb)
Calm - 10SM
20:58
Clear
64°F / 18°C 59°F / 15°C 83% 30.04 in
(1017 mb)
S 2.3 mph
(S 4 kph)
- 10SM
19:58
Clear
66°F / 19°C 61°F / 16°C 83% 30.04 in
(1017 mb)
SSE 4.6 mph
(SSE 7 kph)
- 10SM
18:58
Clear
66°F / 19°C 61°F / 16°C 83% 30.04 in
(1017 mb)
SE 4.6 mph
(SE 7 kph)
- 10SM
17:58
Clear
68°F / 20°C 61°F / 16°C 78% 30.01 in
(1016 mb)
SSE 5.8 mph
(SSE 9 kph)
- 10SM
16:58
Clear
72°F / 22°C 61°F / 16°C 69% 30.01 in
(1016 mb)
SSE 8.1 mph
(SSE 13 kph)
- 10SM
15:58
Clear
73°F / 23°C 57°F / 14°C 57% 30.01 in
(1016 mb)
SE 9.2 mph
(SE 15 kph)
- 10SM
14:58
Partly Cloudy
73°F / 23°C 57°F / 14°C 57% 30.04 in
(1017 mb)
SE 12.7 mph
(SE 20 kph)
- 10SM
13:58
Partly Cloudy
75°F / 24°C 59°F / 15°C 57% 30.04 in
(1017 mb)
SE 12.7 mph
(SE 20 kph)
- 10SM
12:58
Partly Cloudy
77°F / 25°C 59°F / 15°C 54% 30.04 in
(1017 mb)
ESE 10.4 mph
(ESE 17 kph)
- 10SM
11:58
Partly Cloudy
77°F / 25°C 57°F / 14°C 51% 30.04 in
(1017 mb)
SE 9.2 mph
(SE 15 kph)
- 10SM
10:58
Partly Cloudy
77°F / 25°C 59°F / 15°C 54% 30.04 in
(1017 mb)
E 8.1 mph
(E 13 kph)
- 10SM
09:58
Partly Cloudy
77°F / 25°C 59°F / 15°C 54% 30.04 in
(1017 mb)
SE 9.2 mph
(SE 15 kph)
- 10SM
08:58
Partly Cloudy
75°F / 24°C 61°F / 16°C 61% 30.04 in
(1017 mb)
Variable 2.3 mph
(Variable 4 kph)
- 10SM
07:58
Partly Cloudy
72°F / 22°C 61°F / 16°C 69% 30.04 in
(1017 mb)
N 3.5 mph
(N 6 kph)
- 10SM
06:58
Partly Cloudy
66°F / 19°C 61°F / 16°C 83% 30.04 in
(1017 mb)
NNW 4.6 mph
(NNW 7 kph)
- 10SM
05:58
Partly Cloudy
63°F / 17°C 59°F / 15°C 88% 30.04 in
(1017 mb)
NW 3.5 mph
(NW 6 kph)
- 8SM
04:58
Partly Cloudy
61°F / 16°C 59°F / 15°C 94% 30.01 in
(1016 mb)
NW 4.6 mph
(NW 7 kph)
- 8SM
03:58
Clear
63°F / 17°C 61°F / 16°C 94% 29.98 in
(1015 mb)
W 2.3 mph
(W 4 kph)
- 10SM
02:58
Partly Cloudy
66°F / 19°C 63°F / 17°C 88% 29.98 in
(1015 mb)
SSW 3.5 mph
(SSW 6 kph)
- 10SM
01:58
Partly Cloudy
66°F / 19°C 63°F / 17°C 88% 29.95 in
(1014 mb)
SSW 6.9 mph
(SSW 11 kph)
- 10SM
00:58
Partly Cloudy
66°F / 19°C 61°F / 16°C 83% 29.95 in
(1014 mb)
SSW 4.6 mph
(SSW 7 kph)
- 10SM
Time Weather Temperature Dewpoint Humidity Pressure Winds Precip Visibility


Weather for websites

WeatherForYou.com, LLC is not responsible for any damages or problems caused by this service. Current weather conditions are obtained from the closest station including government and personal stations which may have varying degrees of accuracy. Weather forecasts are derived from the NOAA NDFD. Like all things, this site belongs to Jesus Christ... He just trusts us to maintain it. If you have any questions or comments email webmaster@weatherforyou.com

Copyright © 2015, WeatherForYou.com LLC. All rights reserved.